[[{"header":{"parameterUnit":"m.s-1","parameterCategory":1,"la1":30.2991,"la2":30.254,"lo1":-89.0895,"lo2":-89.0444,"dy":0.0017,"dx":0.0017,"nx":28,"ny":28,"refTime":"2023-08-14T09:00:00:Z","depth":0,"parameterNumber":2,"parameterNumberName":"U-component_of_WINDS"},"data":[0,0,0,0,0,0,0,0,0,0,0,0,0,0,0,0,0,0,0,0,0,0,0,0,0,0,0,0,0,0,0,0,0,0,0,0,0,0,0,0,0,0,0,0,0,0,0,0,0,0,0,0,0,0,0,0,0,0,1.2121,1.2122,0,1.2214,1.2215,1.2216,1.2233,1.2232,1.2231,1.223,1.2331,1.2334,1.2338,0,0,0,0,0,0,0,0,0,0,0,0,0,1.1964,1.1967,1.2121,1.2123,1.2124,1.2214,1.2215,1.2216,1.2233,1.2232,1.2231,1.223,1.233,1.2334,1.2338,0,0,0,0,0,0,0,0,0,0,0,0,0,1.2043,1.1968,1.2121,1.2143,1.2145,1.2214,1.2215,1.2217,1.2233,1.2232,1.2231,1.223,1.2328,1.2333,1.2338,1.2393,0,0,1.2354,1.2356,0,0,0,0,0,0,0,0,1.2038,1.2048,1.2138,1.2141,1.2145,1.221,1.2197,1.2276,1.2233,1.22,1.223,1.2229,1.2292,1.23,1.232,1.2398,1.2402,1.2354,1.2358,1.236,1.2361,0,0,0,0,0,0,0,1.2033,1.2044,1.2158,1.214,1.2143,1.215,1.2159,1.2212,1.2252,1.2203,1.2204,1.2215,1.2294,1.2315,1.2323,1.2404,1.2354,1.2359,1.2362,1.2364,1.2533,1.2534,0,0,0,0,0,0,1.2023,1.204,1.2155,1.2161,1.2087,1.2153,1.2164,1.2191,1.2251,1.2259,1.2216,1.2215,1.2307,1.2317,1.2326,1.2396,1.236,1.2364,1.2367,1.2532,1.2533,1.2535,0,0,0,0,0,0,1.2019,1.2033,1.2152,1.2101,1.2116,1.2157,1.2187,1.2193,1.2215,1.2261,1.2268,1.223,1.2307,1.2319,1.2376,1.2399,1.2367,1.2371,1.253,1.2532,1.2534,1.2534,0,0,0,0,0,0,1.2015,1.2031,1.2051,1.2101,1.2119,1.2198,1.2188,1.2196,1.2223,1.2223,1.2276,1.2284,1.2307,1.2369,1.2382,1.2406,1.2375,1.2528,1.2531,1.2533,1.2532,1.2536,1.2539,0,0,0,0,0,1.2009,1.2049,1.2052,1.2066,1.2144,1.22,1.221,1.2234,1.2224,1.2246,1.2276,1.2282,1.2394,1.2374,1.2389,1.2415,1.2527,1.253,1.2533,1.2531,1.2535,1.2539,0,0,0,0,0,0,1.2002,1.2055,1.206,1.2117,1.2153,1.2202,1.223,1.2238,1.2279,1.2278,1.2307,1.2319,1.2375,1.2401,1.2378,1.2472,1.246,1.2466,1.2453,1.2458,1.2461,1.2454,1.238,0,0,0,0,0,1.2007,1.2045,1.2091,1.2136,1.2154,1.2189,1.2214,1.2229,1.2269,1.2285,1.2319,1.2359,1.2403,1.2432,1.2475,1.2536,1.2548,1.2561,1.2564,1.2567,1.2572,1.2608,1.2614,1.2545,1.2545,1.2545,0,0,1.2018,1.2052,1.2075,1.2136,1.2166,1.2207,1.2202,1.2245,1.2277,1.2292,1.2348,1.2374,1.2421,1.248,1.2508,1.2504,1.2594,1.2571,1.2573,1.2577,1.2612,1.2618,1.2624,1.2548,1.2547,1.2547,0,0,1.2059,1.2087,1.2129,1.2159,1.2204,1.2227,1.2237,1.2285,1.2303,1.2359,1.2371,1.241,1.2485,1.2518,1.2545,1.2599,1.2607,1.2612,1.2631,1.2665,1.267,1.2675,1.2696,1.2702,1.2617,1.2618,1.2618,0,1.2067,1.2128,1.215,1.2193,1.222,1.2234,1.2278,1.2306,1.2364,1.2384,1.2377,1.2472,1.2505,1.2573,1.2586,1.2606,1.262,1.2607,1.2667,1.2672,1.2678,1.2697,1.2705,1.2618,1.2618,1.2618,1.2618,0,1.2137,1.2179,1.2207,1.2261,1.2291,1.2334,1.2365,1.2393,1.2406,1.243,1.2488,1.2527,1.2579,1.2596,1.2609,1.2666,1.2662,1.2661,1.265,1.2684,1.2703,1.2711,1.2618,1.2618,1.2618,1.2618,0,0,1.2177,1.2241,1.2252,1.2277,1.2328,1.2362,1.2406,1.2455,1.248,1.2519,1.2558,1.2622,1.2621,1.2652,1.2669,1.2698,1.274,1.2694,1.2696,1.2702,1.2807,1.2808,1.2816,1.2745,1.2747,1.2748,1.2803,0,1.2225,1.2302,1.2324,1.239,1.243,1.2444,1.2483,1.252,1.2543,1.2582,1.261,1.2654,1.2649,1.2668,1.2698,1.2728,1.2762,1.2725,1.2784,1.2786,1.2773,1.2826,1.2827,1.2878,1.2811,1.2812,1.2813,0,1.2291,1.233,1.24,1.2446,1.2464,1.2499,1.2546,1.2582,1.2624,1.264,1.2673,1.2688,1.2737,1.2722,1.2791,1.2765,1.2791,1.2809,1.2812,1.2819,1.2802,1.2836,1.2894,1.2902,1.2825,1.2824,1.2823,0,1.2314,1.2385,1.2436,1.2457,1.2512,1.2536,1.256,1.2601,1.263,1.2672,1.2691,1.2738,1.2764,1.2802,1.2829,1.2816,1.2896,1.2883,1.2912,1.2911,1.2929,1.2928,1.2993,1.2944,1.2944,1.2944,1.2943,0,1.2366,1.2409,1.2447,1.2479,1.2528,1.2553,1.2601,1.2627,1.2663,1.2701,1.2716,1.2752,1.2786,1.2827,1.2849,1.2903,1.2915,1.293,1.2936,1.2929,1.2927,1.2947,1.2945,1.2946,1.2945,1.2945,1.2944,0,1.2401,1.2428,1.2486,1.2532,1.2545,1.2579,1.2621,1.2653,1.2677,1.2725,1.2738,1.2777,1.2826,1.2856,1.2919,1.2934,1.2994,1.2998,1.2979,1.2982,1.3009,1.3007,1.309,1.3103,1.3044,1.3045,1.3045,0,1.2433,1.2466,1.2517,1.2542,1.2566,1.2608,1.2637,1.2663,1.2693,1.2743,1.277,1.2819,1.2861,1.2939,1.2973,1.3022,1.3028,1.3054,1.3035,1.3028,1.303,1.3028,1.3032,1.3057,1.3058,1.3058,1.3058,0,1.2488,1.2499,1.2539,1.2584,1.2617,1.2654,1.2691,1.2712,1.2745,1.2777,1.2827,1.2858,1.2922,1.2972,1.3023,1.305,1.3061,1.3064,1.3073,1.3068,1.3056,1.3064,1.2989,1.3062,1.3062,1.3061,1.3061,1.3061,1.2523,1.2553,1.2593,1.2637,1.2668,1.2702,1.2734,1.2762,1.2803,1.2855,1.2869,1.2921,1.2964,1.3033,1.3062,1.3104,1.3101,1.3114,1.3118,1.3121,1.3122,1.3048,1.3114,1.3114,1.3113,1.3113,1.3113,0,1.2579,1.2605,1.2645,1.2696,1.2731,1.2735,1.2777,1.2806,1.2851,1.2889,1.2929,1.2986,1.3035,1.3073,1.3123,1.315,1.3156,1.3162,1.3161,1.3167,1.3121,1.3109,1.3156,1.3156,1.3156,1.3156,1.3156,1.3156,1.2612,1.2664,1.2681,1.2748,1.2775,1.2824,1.2848,1.288,1.291,1.2973,1.3013,1.3036,1.3075,1.3128,1.3173,1.3183,1.3202,1.3207,1.3218,1.3175,1.317,1.3166,1.3154,1.3211,1.3211,1.3261,1.3261,1.3262]},{"header":{"parameterUnit":"m.s-1","parameterCategory":1,"la1":30.2991,"la2":30.254,"lo1":-89.0895,"lo2":-89.0444,"dy":0.0017,"dx":0.0017,"nx":28,"ny":28,"refTime":"2023-08-14T09:00:00:Z","depth":0,"parameterNumber":3,"parameterNumberName":"V-component_of_WINDS"},"data":[0,0,0,0,0,0,0,0,0,0,0,0,0,0,0,0,0,0,0,0,0,0,0,0,0,0,0,0,0,0,0,0,0,0,0,0,0,0,0,0,0,0,0,0,0,0,0,0,0,0,0,0,0,0,0,0,0,0,2.0983,2.0983,0,2.1029,2.103,2.103,2.1052,2.1052,2.1052,2.1052,2.1096,2.1098,2.1099,0,0,0,0,0,0,0,0,0,0,0,0,0,2.0909,2.091,2.0983,2.0984,2.0984,2.1029,2.103,2.103,2.1052,2.1052,2.1052,2.1052,2.1096,2.1097,2.1099,0,0,0,0,0,0,0,0,0,0,0,0,0,2.0947,2.0911,2.0983,2.1,2.1002,2.1029,2.103,2.103,2.1052,2.1052,2.1052,2.1052,2.1096,2.1097,2.1099,2.1111,0,0,2.1105,2.1105,0,0,0,0,0,0,0,0,2.0944,2.0949,2.0997,2.0999,2.1002,2.1035,2.102,2.1057,2.1052,2.1033,2.1052,2.1052,2.1076,2.1079,2.1088,2.1113,2.1115,2.1105,2.1106,2.1107,2.1107,0,0,0,0,0,0,0,2.0942,2.0947,2.1001,2.0998,2.1001,2.1004,2.101,2.1027,2.1054,2.1035,2.1036,2.1042,2.1077,2.1086,2.1089,2.1115,2.1105,2.1106,2.1107,2.1108,2.1148,2.1148,0,0,0,0,0,0,2.0937,2.0945,2.1,2.1003,2.0972,2.1006,2.1012,2.1024,2.1054,2.1058,2.1042,2.1042,2.1083,2.1087,2.1091,2.1104,2.1107,2.1108,2.1109,2.1148,2.1148,2.1148,0,0,0,0,0,0,2.0935,2.0942,2.0998,2.0974,2.0982,2.1007,2.1021,2.1025,2.1034,2.1059,2.1064,2.1046,2.1083,2.1088,2.1105,2.1106,2.1109,2.1111,2.1148,2.1148,2.1148,2.1132,0,0,0,0,0,0,2.0933,2.0941,2.0947,2.0974,2.0983,2.1013,2.1021,2.1026,2.1038,2.1039,2.1065,2.1069,2.1083,2.1102,2.1107,2.1108,2.1112,2.1148,2.1148,2.1148,2.1133,2.1132,2.1131,0,0,0,0,0,2.093,2.0941,2.0947,2.0954,2.0991,2.1013,2.1018,2.1035,2.1038,2.1043,2.1058,2.1068,2.1105,2.1104,2.1109,2.1111,2.1148,2.1148,2.1148,2.1133,2.1132,2.1131,0,0,0,0,0,0,2.0913,2.0945,2.0952,2.0973,2.099,2.1017,2.1024,2.1034,2.105,2.1051,2.1071,2.1076,2.109,2.1103,2.1101,2.1122,2.1127,2.1128,2.1114,2.1113,2.1112,2.1108,2.1114,0,0,0,0,0,2.0912,2.0928,2.0954,2.0969,2.0978,2.0999,2.1009,2.1021,2.1039,2.1047,2.1063,2.108,2.1095,2.1105,2.112,2.1134,2.1139,2.1138,2.1137,2.1136,2.1137,2.1142,2.1141,2.1148,2.1148,2.1148,0,0,2.0909,2.0928,2.0938,2.0966,2.0981,2.0995,2.1005,2.1021,2.1031,2.1049,2.1065,2.1078,2.1097,2.1112,2.1119,2.1123,2.1135,2.1136,2.1135,2.1136,2.1142,2.1141,2.114,2.1148,2.1148,2.1148,0,0,2.0912,2.0929,2.0942,2.0956,2.0978,2.0991,2.0994,2.1019,2.1028,2.1045,2.1057,2.1069,2.1095,2.1108,2.1117,2.112,2.1129,2.1124,2.1119,2.1124,2.1123,2.1123,2.1122,2.1121,2.1125,2.1125,2.1125,0,2.0906,2.0929,2.0947,2.0961,2.0972,2.0988,2.1,2.1012,2.1038,2.1044,2.1047,2.1078,2.1093,2.1109,2.111,2.1118,2.112,2.1122,2.1122,2.1122,2.1122,2.1121,2.112,2.1124,2.1124,2.1124,2.1124,0,2.0919,2.0934,2.0942,2.0966,2.0977,2.099,2.1008,2.1017,2.1027,2.1039,2.1054,2.1072,2.109,2.1094,2.1104,2.1111,2.1112,2.1118,2.1124,2.112,2.1119,2.1119,2.1123,2.1123,2.1123,2.1124,0,0,2.0914,2.0945,2.0948,2.0957,2.0981,2.0992,2.1004,2.1021,2.1028,2.1044,2.1053,2.1073,2.1078,2.1089,2.11,2.1105,2.1102,2.111,2.1111,2.1107,2.1108,2.1103,2.1102,2.1108,2.1108,2.1108,2.1106,0,2.0919,2.0942,2.0957,2.0973,2.0986,2.0999,2.1009,2.1024,2.1035,2.1046,2.1058,2.1071,2.1078,2.1084,2.1089,2.1102,2.1103,2.1102,2.1115,2.1115,2.1109,2.1102,2.1097,2.1094,2.1106,2.1106,2.1106,0,2.0928,2.0942,2.096,2.0979,2.0985,2.0994,2.1009,2.102,2.1035,2.1043,2.1053,2.1064,2.1075,2.1079,2.1093,2.1092,2.1097,2.1104,2.1104,2.1106,2.111,2.1102,2.1094,2.1093,2.1106,2.1106,2.1106,0,2.092,2.0944,2.0957,2.0965,2.0988,2.0993,2.1003,2.1018,2.1026,2.1039,2.1044,2.1058,2.1066,2.1075,2.1088,2.1091,2.11,2.1106,2.1105,2.1104,2.1106,2.1106,2.1098,2.1111,2.1111,2.1111,2.1111,0,2.0923,2.0933,2.0953,2.0961,2.0971,2.0987,2.0996,2.1007,2.1019,2.1028,2.1041,2.1048,2.1065,2.1074,2.1084,2.1093,2.1096,2.1101,2.1104,2.11,2.1099,2.1104,2.1104,2.1111,2.1111,2.1111,2.1111,0,2.0917,2.0931,2.0946,2.0965,2.097,2.0976,2.0992,2.0999,2.101,2.102,2.1024,2.104,2.1051,2.1065,2.108,2.1087,2.1094,2.1098,2.1088,2.109,2.1087,2.1087,2.1082,2.1081,2.1096,2.1095,2.1095,0,2.0917,2.0925,2.0944,2.0951,2.096,2.0971,2.0978,2.0993,2.1,2.1016,2.1021,2.1032,2.1043,2.1059,2.1072,2.1083,2.1087,2.1084,2.1088,2.1083,2.1085,2.1084,2.1083,2.1083,2.1082,2.1082,2.1082,0,2.0916,2.0922,2.0934,2.0946,2.0955,2.0966,2.0977,2.0982,2.0998,2.1005,2.1016,2.1024,2.1039,2.1049,2.1061,2.107,2.1078,2.108,2.108,2.1076,2.107,2.1071,2.1084,2.108,2.1081,2.1081,2.1081,2.1081,2.0913,2.0918,2.0932,2.0943,2.0953,2.0962,2.0969,2.0979,2.0989,2.1002,2.1009,2.1019,2.1031,2.1048,2.1056,2.1063,2.1066,2.1067,2.1067,2.1066,2.1064,2.1069,2.1065,2.1065,2.1065,2.1066,2.1066,0,2.0911,2.0919,2.0929,2.0944,2.0952,2.0958,2.097,2.0976,2.0985,2.0995,2.1004,2.1015,2.1025,2.1037,2.1047,2.105,2.1054,2.1052,2.1051,2.1053,2.1062,2.106,2.1049,2.1049,2.1049,2.1049,2.1049,2.1049,2.0911,2.092,2.0927,2.094,2.0949,2.0958,2.0964,2.0972,2.098,2.0992,2.0999,2.1007,2.1018,2.1028,2.1036,2.1039,2.1042,2.1039,2.1043,2.1051,2.1052,2.1054,2.1052,2.1039,2.1039,2.1033,2.1033,2.1033]}]]